Total_Precipitation_Accumulation
0.60 0.72 0.84 1.03 1.18 1.34 1.49 1.74 2.01 2.14 2.20 2.26 2.23 2.15 2.33 2.47 2.38 2.26 2.35 2.53 2.68 2.83 2.82 2.62 2.45 2.33 2.18 1.94 1.81 1.75 1.64 1.46 1.31 1.32 1.36 1.23 1.06 1.00 0.86 0.73 0.66 0.62 0.56
0.64 0.72 0.82 1.00 1.13 1.32 1.43 1.62 1.91 2.11 2.08 2.02 2.08 2.05 2.09 2.23 2.34 2.30 2.27 2.36 2.58 2.78 2.97 2.83 2.63 2.48 2.37 2.24 2.02 1.87 1.83 1.75 1.54 1.43 1.46 1.49 1.41 1.16 0.95 0.83 0.72 0.66 0.63
0.61 0.69 0.78 0.92 1.09 1.30 1.42 1.45 1.70 2.07 2.15 2.12 2.26 2.29 2.34 2.39 2.42 2.35 2.29 2.30 2.38 2.53 2.62 2.66 2.53 2.52 2.44 2.36 2.22 2.03 1.93 1.94 1.79 1.52 1.59 1.66 1.49 1.18 1.00 0.89 0.80 0.73 0.68
0.61 0.68 0.75 0.90 1.02 1.22 1.50 1.56 1.62 1.92 2.21 2.25 2.25 2.20 2.20 2.20 2.20 2.14 2.12 2.22 2.37 2.45 2.48 2.52 2.51 2.33 2.25 2.20 2.18 2.13 2.00 2.02 2.02 1.78 1.49 1.37 1.31 1.34 1.22 0.99 0.92 0.91 0.83
0.64 0.71 0.77 0.91 1.06 1.24 1.50 1.69 1.76 1.82 2.06 2.18 2.13 2.10 2.07 2.07 2.17 2.16 2.11 2.15 2.29 2.46 2.53 2.48 2.49 2.46 2.28 2.11 2.06 2.09 2.09 2.04 1.97 1.86 1.66 1.42 1.19 1.13 1.28 1.14 0.99 1.04 1.01
0.68 0.72 0.81 0.97 1.14 1.30 1.52 1.71 1.87 1.78 1.88 2.18 2.19 2.02 1.95 1.94 2.05 2.17 2.21 2.22 2.23 2.29 2.39 2.44 2.38 2.35 2.34 2.27 2.09 2.04 2.10 2.05 1.97 1.87 1.75 1.63 1.49 1.26 1.23 1.18 0.97 0.95 0.95
0.66 0.74 0.83 0.99 1.09 1.22 1.39 1.61 1.77 1.78 1.80 2.02 2.19 2.07 1.90 1.86 1.86 1.96 2.05 2.09 2.12 2.11 2.14 2.23 2.27 2.21 2.17 2.21 2.20 2.11 2.06 2.05 2.04 1.95 1.80 1.65 1.52 1.40 1.41 1.44 1.24 1.03 0.90
0.55 0.67 0.77 0.91 1.02 1.07 1.20 1.42 1.63 1.68 1.70 1.87 2.12 2.17 2.03 1.99 1.86 1.84 1.91 1.96 1.93 1.89 1.89 1.94 1.99 1.98 1.94 1.97 2.10 2.12 2.02 2.00 2.02 1.97 1.90 1.80 1.59 1.50 1.55 1.64 1.71 1.54 1.12
0.52 0.60 0.71 0.78 0.85 0.97 1.06 1.21 1.49 1.66 1.66 1.71 1.95 2.21 2.21 2.11 2.00 1.88 1.88 1.91 1.89 1.86 1.87 1.86 1.86 1.79 1.76 1.75 1.80 1.89 1.86 1.87 1.89 1.91 1.92 1.92 1.75 1.62 1.56 1.59 1.79 2.12 1.88
0.54 0.59 0.66 0.70 0.78 0.89 0.98 1.08 1.30 1.55 1.65 1.66 1.77 1.98 2.23 2.19 2.10 2.08 1.96 1.91 1.88 1.88 1.87 1.85 1.84 1.77 1.66 1.68 1.70 1.67 1.63 1.70 1.74 1.77 1.84 1.86 1.77 1.66 1.59 1.62 1.64 1.76 1.99
0.51 0.57 0.60 0.69 0.76 0.86 0.98 1.08 1.19 1.36 1.52 1.55 1.60 1.71 1.92 2.14 2.17 2.10 1.97 1.86 1.86 1.81 1.73 1.69 1.74 1.75 1.67 1.65 1.72 1.67 1.58 1.63 1.65 1.65 1.66 1.67 1.67 1.68 1.61 1.61 1.61 1.57 1.66
0.47 0.53 0.58 0.66 0.72 0.82 0.96 1.04 1.11 1.26 1.39 1.49 1.55 1.61 1.68 1.85 2.09 2.03 1.87 1.73 1.74 1.79 1.75 1.64 1.62 1.67 1.68 1.67 1.70 1.67 1.57 1.54 1.55 1.58 1.57 1.57 1.59 1.63 1.57 1.55 1.51 1.44 1.39
0.47 0.53 0.60 0.63 0.68 0.79 0.88 0.94 1.03 1.16 1.29 1.43 1.52 1.53 1.57 1.66 1.78 1.88 1.82 1.70 1.64 1.67 1.72 1.71 1.65 1.63 1.67 1.68 1.62 1.62 1.57 1.50 1.47 1.48 1.51 1.48 1.56 1.65 1.58 1.55 1.48 1.36 1.28
0.48 0.52 0.58 0.61 0.65 0.74 0.86 0.89 0.99 1.11 1.17 1.30 1.40 1.43 1.43 1.47 1.52 1.61 1.79 1.79 1.70 1.60 1.56 1.56 1.60 1.67 1.80 1.86 1.83 1.84 1.69 1.55 1.50 1.44 1.40 1.42 1.54 1.61 1.66 1.72 1.59 1.49 1.48
0.45 0.51 0.58 0.63 0.68 0.76 0.86 0.93 0.98 1.01 1.04 1.16 1.26 1.34 1.39 1.46 1.48 1.45 1.56 1.75 1.72 1.58 1.50 1.48 1.53 1.63 1.97 2.37 2.39 2.28 1.97 1.65 1.48 1.39 1.36 1.42 1.57 1.65 1.85 2.02 1.91 1.88 1.97
0.48 0.50 0.57 0.62 0.70 0.77 0.88 1.01 1.03 1.04 0.99 1.05 1.18 1.29 1.38 1.52 1.52 1.45 1.49 1.64 1.73 1.67 1.56 1.49 1.49 1.54 1.82 2.55 2.71 2.33 1.83 1.61 1.48 1.41 1.34 1.35 1.51 1.54 1.68 1.90 2.02 2.10 2.24
0.51 0.51 0.56 0.64 0.73 0.79 0.89 1.02 1.06 1.05 1.02 1.04 1.11 1.20 1.29 1.46 1.51 1.47 1.54 1.61 1.68 1.75 1.74 1.58 1.45 1.41 1.61 2.33 2.51 2.24 1.76 1.56 1.46 1.39 1.37 1.37 1.41 1.50 1.45 1.60 1.69 1.74 1.91
0.52 0.52 0.58 0.65 0.70 0.77 0.84 0.92 0.98 1.01 1.08 1.09 1.13 1.19 1.22 1.29 1.44 1.51 1.53 1.56 1.59 1.63 1.69 1.64 1.52 1.40 1.48 2.08 2.29 2.13 1.76 1.60 1.50 1.39 1.36 1.36 1.37 1.46 1.68 1.64 1.59 1.49 1.52
0.55 0.57 0.61 0.66 0.68 0.71 0.79 0.89 0.93 0.96 1.10 1.17 1.18 1.17 1.14 1.19 1.32 1.42 1.50 1.54 1.56 1.52 1.52 1.50 1.49 1.45 1.44 1.83 2.13 1.98 1.66 1.60 1.50 1.38 1.35 1.37 1.35 1.63 1.92 1.81 1.64 1.45 1.35
0.53 0.59 0.62 0.60 0.64 0.70 0.76 0.88 0.94 0.92 1.06 1.16 1.20 1.12 1.04 1.04 1.09 1.21 1.38 1.49 1.51 1.45 1.45 1.45 1.43 1.36 1.32 1.61 1.93 1.94 1.61 1.53 1.46 1.38 1.34 1.49 1.58 1.80 1.93 1.75 1.71 1.79 1.53
0.51 0.54 0.57 0.57 0.66 0.72 0.73 0.83 0.92 0.99 1.05 1.13 1.18 1.09 1.02 1.02 1.03 1.11 1.29 1.42 1.49 1.46 1.40 1.35 1.35 1.29 1.29 1.43 1.65 1.89 1.69 1.53 1.46 1.42 1.36 1.35 1.64 1.75 1.84 1.85 1.78 2.02 1.89
0.44 0.47 0.52 0.56 0.63 0.70 0.74 0.82 0.92 1.01 1.08 1.14 1.14 1.12 1.09 1.05 1.07 1.12 1.26 1.40 1.47 1.52 1.46 1.35 1.32 1.29 1.29 1.39 1.54 1.75 1.79 1.67 1.46 1.35 1.21 1.27 1.57 1.66 1.77 1.76 1.85 1.99 1.91
0.42 0.44 0.50 0.52 0.60 0.67 0.75 0.86 0.94 0.96 1.04 1.10 1.15 1.15 1.16 1.13 1.14 1.18 1.26 1.40 1.47 1.51 1.49 1.39 1.31 1.28 1.23 1.39 1.67 1.60 1.65 1.71 1.48 1.33 1.44 1.52 1.65 1.66 1.57 1.64 1.74 1.73 1.64
0.41 0.43 0.48 0.51 0.60 0.66 0.70 0.81 0.90 0.90 0.91 0.98 1.09 1.10 1.14 1.19 1.24 1.26 1.27 1.36 1.47 1.53 1.44 1.37 1.28 1.21 1.21 1.42 1.61 1.56 1.55 1.64 1.60 1.53 1.60 1.69 1.66 1.56 1.45 1.49 1.50 1.43 1.52
0.46 0.47 0.51 0.53 0.62 0.68 0.74 0.80 0.83 0.83 0.85 0.89 1.03 1.13 1.17 1.21 1.28 1.31 1.32 1.39 1.39 1.55 1.52 1.38 1.31 1.32 1.40 1.58 1.74 1.70 1.62 1.63 1.63 1.70 1.78 1.73 1.63 1.59 1.46 1.34 1.27 1.30 1.47
0.51 0.51 0.53 0.58 0.64 0.71 0.80 0.83 0.80 0.80 0.85 0.90 0.98 1.10 1.19 1.19 1.19 1.21 1.27 1.43 1.46 1.50 1.46 1.39 1.35 1.28 1.45 1.60 1.67 1.76 1.79 1.81 1.89 1.91 1.81 1.60 1.45 1.40 1.35 1.33 1.30 1.23 1.26